TimeCST,TemperatureF,Dew PointF,Humidity,Sea Level PressureIn,VisibilityMPH,Wind Direction,Wind SpeedMPH,Gust SpeedMPH,PrecipitationIn,Events,Conditions,WindDirDegrees,DateUTC
12:53 AM,37.0,30.0,76,30.13,9.0,WNW,13.8,-,0.00,Snow,Light Snow,290,2012-11-23 06:53:00
1:53 AM,36.0,25.0,64,30.14,9.0,WNW,15.0,23.0,0.00,Snow,Light Snow,300,2012-11-23 07:53:00
2:53 AM,37.0,21.0,52,30.15,9.0,NW,19.6,29.9,0.00,Snow,Light Snow,310,2012-11-23 08:53:00
3:53 AM,36.0,21.0,55,30.16,10.0,NW,21.9,29.9,0.00,,Overcast,310,2012-11-23 09:53:00
4:53 AM,32.0,18.0,56,30.19,10.0,NW,32.2,42.6,0.00,,Clear,310,2012-11-23 10:53:00
5:53 AM,30.9,18.0,59,30.22,10.0,WNW,25.3,34.5,N/A,,Mostly Cloudy,300,2012-11-23 11:53:00
6:53 AM,28.0,17.1,63,30.26,10.0,WNW,20.7,26.5,N/A,,Clear,300,2012-11-23 12:53:00
7:53 AM,27.0,15.1,61,30.29,10.0,WNW,24.2,33.4,N/A,,Clear,300,2012-11-23 13:53:00
8:53 AM,28.0,15.1,58,30.30,10.0,WNW,27.6,38.0,N/A,,Clear,300,2012-11-23 14:53:00
9:53 AM,28.9,15.1,56,30.34,10.0,WNW,26.5,36.8,N/A,,Scattered Clouds,300,2012-11-23 15:53:00
10:53 AM,30.0,16.0,56,30.36,10.0,WNW,24.2,34.5,N/A,,Mostly Cloudy,300,2012-11-23 16:53:00
11:53 AM,32.0,16.0,52,30.35,10.0,WNW,21.9,31.1,N/A,,Mostly Cloudy,290,2012-11-23 17:53:00
12:53 PM,32.0,16.0,52,30.35,10.0,NW,25.3,32.2,N/A,,Scattered Clouds,310,2012-11-23 18:53:00
1:53 PM,32.0,15.1,50,30.35,10.0,WNW,19.6,29.9,N/A,,Clear,300,2012-11-23 19:53:00
2:53 PM,32.0,15.1,50,30.36,10.0,NW,23.0,28.8,N/A,,Clear,310,2012-11-23 20:53:00
3:53 PM,32.0,15.1,50,30.37,10.0,NW,18.4,25.3,N/A,,Clear,320,2012-11-23 21:53:00
4:53 PM,28.9,14.0,54,30.38,10.0,NW,13.8,-,N/A,,Clear,310,2012-11-23 22:53:00
5:53 PM,28.0,14.0,56,30.39,10.0,NW,12.7,-,N/A,,Clear,310,2012-11-23 23:53:00
6:53 PM,26.1,14.0,60,30.40,10.0,NW,11.5,-,N/A,,Clear,310,2012-11-24 00:53:00
7:53 PM,25.0,12.9,60,30.40,10.0,NW,15.0,-,N/A,,Clear,320,2012-11-24 01:53:00
8:53 PM,24.1,12.9,62,30.40,10.0,NW,15.0,-,N/A,,Clear,310,2012-11-24 02:53:00
9:53 PM,23.0,12.9,65,30.40,10.0,NW,13.8,-,N/A,,Clear,320,2012-11-24 03:53:00
10:53 PM,21.9,12.9,68,30.40,10.0,NW,13.8,-,N/A,,Clear,310,2012-11-24 04:53:00
11:53 PM,19.9,12.0,71,30.38,10.0,NW,12.7,-,N/A,,Clear,310,2012-11-24 05:53:00